Time,TemperatureF,DewpointF,PressureIn,WindDirection,WindDirectionDegrees,WindSpeedMPH,WindSpeedGustMPH,Humidity,HourlyPrecipIn,Conditions,Clouds,dailyrainin,SoftwareType,DateUTC
2013-05-13 00:03:00,68.0,-99.9,29.95,North,9,11.0,14.0,-999,-99.99,,,-99.99,,2013-05-13 04:03:00,
2013-05-13 00:12:00,68.0,-99.9,29.96,North,11,13.0,17.0,-999,-99.99,,,-99.99,,2013-05-13 04:12:00,
2013-05-13 00:23:00,67.0,-99.9,29.96,NNE,12,12.0,14.0,-999,-99.99,,,-99.99,,2013-05-13 04:23:00,
2013-05-13 00:33:00,67.0,-99.9,29.96,NNE,13,14.0,17.0,-999,-99.99,,,-99.99,,2013-05-13 04:33:00,
2013-05-13 00:42:00,66.0,-99.9,29.96,NNE,15,12.0,15.0,-999,-99.99,,,-99.99,,2013-05-13 04:42:00,
2013-05-13 00:53:00,66.0,-99.9,29.96,NNE,14,12.0,15.0,-999,-99.99,,,-99.99,,2013-05-13 04:53:00,
2013-05-13 01:02:00,66.0,-99.9,29.96,North,6,13.0,16.0,-999,-99.99,,,-99.99,,2013-05-13 05:02:00,
2013-05-13 01:12:00,65.0,-99.9,29.97,North,11,12.0,14.0,-999,-99.99,,,-99.99,,2013-05-13 05:12:00,
2013-05-13 01:22:00,65.0,-99.9,29.97,North,10,13.0,17.0,-999,-99.99,,,-99.99,,2013-05-13 05:22:00,
2013-05-13 01:32:00,64.0,-99.9,29.97,NNE,15,14.0,16.0,-999,-99.99,,,-99.99,,2013-05-13 05:32:00,
2013-05-13 01:42:00,64.0,-99.9,29.97,North,10,15.0,19.0,-999,-99.99,,,-99.99,,2013-05-13 05:42:00,
2013-05-13 01:52:00,63.0,-99.9,29.98,North,8,15.0,18.0,-999,-99.99,,,-99.99,,2013-05-13 05:52:00,
2013-05-13 02:01:00,63.0,-99.9,29.98,North,9,14.0,16.0,-999,-99.99,,,-99.99,,2013-05-13 06:01:00,
2013-05-13 02:12:00,63.0,-99.9,29.98,NNE,14,14.0,15.0,-999,-99.99,,,-99.99,,2013-05-13 06:12:00,
2013-05-13 02:22:00,62.0,-99.9,29.98,NNE,13,12.0,14.0,-999,-99.99,,,-99.99,,2013-05-13 06:22:00,
2013-05-13 02:32:00,62.0,-99.9,29.98,North,10,13.0,15.0,-999,-99.99,,,-99.99,,2013-05-13 06:32:00,
2013-05-13 02:42:00,61.0,-99.9,29.97,NNE,17,13.0,15.0,-999,-99.99,,,-99.99,,2013-05-13 06:42:00,
2013-05-13 02:52:00,61.0,-99.9,29.97,NNE,15,13.0,16.0,-999,-99.99,,,-99.99,,2013-05-13 06:52:00,
2013-05-13 03:01:00,61.0,-99.9,29.98,North,8,12.0,15.0,-999,-99.99,,,-99.99,,2013-05-13 07:01:00,
2013-05-13 03:11:00,61.0,-99.9,29.97,NNE,12,13.0,16.0,-999,-99.99,,,-99.99,,2013-05-13 07:11:00,
2013-05-13 03:22:00,61.0,-99.9,29.98,NNE,12,11.0,14.0,-999,-99.99,,,-99.99,,2013-05-13 07:22:00,
2013-05-13 03:32:00,61.0,-99.9,29.97,NNE,17,13.0,16.0,-999,-99.99,,,-99.99,,2013-05-13 07:32:00,
2013-05-13 03:42:00,60.0,-99.9,29.98,North,11,12.0,15.0,-999,-99.99,,,-99.99,,2013-05-13 07:42:00,
2013-05-13 03:52:00,60.0,-99.9,29.98,North,10,12.0,14.0,-999,-99.99,,,-99.99,,2013-05-13 07:52:00,
2013-05-13 04:02:00,60.0,-99.9,29.98,NNE,12,11.0,14.0,-999,-99.99,,,-99.99,,2013-05-13 08:02:00,
2013-05-13 04:11:00,60.0,-99.9,29.98,North,5,14.0,17.0,-999,-99.99,,,-99.99,,2013-05-13 08:11:00,
2013-05-13 04:22:00,60.0,-99.9,29.98,North,2,11.0,14.0,-999,-99.99,,,-99.99,,2013-05-13 08:22:00,
2013-05-13 04:30:00,59.0,-99.9,29.98,North,4,13.0,17.0,-999,-99.99,,,-99.99,,2013-05-13 08:30:00,
2013-05-13 04:32:00,60.0,-99.9,29.98,North,6,13.0,15.0,-999,-99.99,,,-99.99,,2013-05-13 08:32:00,
2013-05-13 04:42:00,59.0,-99.9,29.98,North,4,13.0,15.0,-999,-99.99,,,-99.99,,2013-05-13 08:42:00,
2013-05-13 04:52:00,59.0,-99.9,29.98,North,8,14.0,17.0,-999,-99.99,,,-99.99,,2013-05-13 08:52:00,
2013-05-13 05:01:00,59.0,-99.9,29.98,North,4,13.0,17.0,-999,-99.99,,,-99.99,,2013-05-13 09:01:00,
2013-05-13 05:11:00,59.0,-99.9,29.98,North,4,13.0,17.0,-999,-99.99,,,-99.99,,2013-05-13 09:11:00,
2013-05-13 05:22:00,59.0,-99.9,29.98,North,4,13.0,17.0,-999,-99.99,,,-99.99,,2013-05-13 09:22:00,
2013-05-13 08:22:00,57.0,-99.9,30.02,North,8,17.0,22.0,-999,-99.99,,,-99.99,,2013-05-13 12:22:00,
2013-05-13 08:32:00,57.0,-99.9,30.02,North,6,17.0,22.0,-999,-99.99,,,-99.99,,2013-05-13 12:32:00,
2013-05-13 08:42:00,57.0,-99.9,30.02,North,7,16.0,20.0,-999,-99.99,,,-99.99,,2013-05-13 12:42:00,
2013-05-13 08:52:00,57.0,-99.9,30.03,North,5,15.0,19.0,-999,-99.99,,,-99.99,,2013-05-13 12:52:00,
2013-05-13 09:01:00,57.0,-99.9,30.04,North,5,14.0,18.0,-999,-99.99,,,-99.99,,2013-05-13 13:01:00,
2013-05-13 09:11:00,57.0,-99.9,30.04,North,1,14.0,17.0,-999,-99.99,,,-99.99,,2013-05-13 13:11:00,
2013-05-13 09:22:00,57.0,-99.9,30.04,North,4,15.0,18.0,-999,-99.99,,,-99.99,,2013-05-13 13:22:00,
2013-05-13 09:32:00,58.0,-99.9,30.03,North,4,17.0,20.0,-999,-99.99,,,-99.99,,2013-05-13 13:32:00,
2013-05-13 09:42:00,58.0,-99.9,30.03,North,4,17.0,20.0,-999,-99.99,,,-99.99,,2013-05-13 13:42:00,
2013-05-13 09:52:00,58.0,-99.9,30.03,North,4,17.0,20.0,-999,-99.99,,,-99.99,,2013-05-13 13:52:00,
2013-05-13 10:02:00,58.0,-99.9,30.03,North,4,17.0,20.0,-999,-99.99,,,-99.99,,2013-05-13 14:02:00,
2013-05-13 10:11:00,61.0,-99.9,30.04,North,6,15.0,20.0,-999,-99.99,,,-99.99,,2013-05-13 14:11:00,
2013-05-13 10:22:00,61.0,-99.9,30.04,North,7,17.0,20.0,-999,-99.99,,,-99.99,,2013-05-13 14:22:00,
2013-05-13 10:32:00,62.0,-99.9,30.04,North,356,14.0,19.0,-999,-99.99,,,-99.99,,2013-05-13 14:32:00,
2013-05-13 10:42:00,62.0,-99.9,30.05,North,3,14.0,18.0,-999,-99.99,,,-99.99,,2013-05-13 14:42:00,
2013-05-13 10:52:00,62.0,-99.9,30.05,North,7,15.0,19.0,-999,-99.99,,,-99.99,,2013-05-13 14:52:00,
2013-05-13 11:01:00,62.0,-99.9,30.05,North,356,16.0,22.0,-999,-99.99,,,-99.99,,2013-05-13 15:01:00,
2013-05-13 11:11:00,63.0,-99.9,30.05,North,356,15.0,22.0,-999,-99.99,,,-99.99,,2013-05-13 15:11:00,
2013-05-13 11:22:00,63.0,-99.9,30.05,North,356,15.0,22.0,-999,-99.99,,,-99.99,,2013-05-13 15:22:00,
2013-05-13 11:32:00,63.0,-99.9,30.05,North,356,15.0,22.0,-999,-99.99,,,-99.99,,2013-05-13 15:32:00,
2013-05-13 14:43:00,68.0,-99.9,30.03,NNW,329,16.0,23.0,-999,-99.99,,,-99.99,,2013-05-13 18:43:00,
2013-05-13 14:52:00,67.0,-99.9,30.03,NW,326,11.0,16.0,-999,-99.99,,,-99.99,,2013-05-13 18:52:00,
2013-05-13 15:01:00,68.0,-99.9,30.02,North,353,15.0,23.0,-999,-99.99,,,-99.99,,2013-05-13 19:01:00,
2013-05-13 15:12:00,67.0,-99.9,30.03,NNW,346,10.0,13.0,-999,-99.99,,,-99.99,,2013-05-13 19:12:00,
2013-05-13 15:22:00,68.0,-99.9,30.02,NW,308,12.0,17.0,-999,-99.99,,,-99.99,,2013-05-13 19:22:00,
2013-05-13 15:33:00,69.0,-99.9,30.01,NW,323,11.0,15.0,-999,-99.99,,,-99.99,,2013-05-13 19:33:00,
2013-05-13 15:44:00,69.0,-99.9,30.01,NNW,331,11.0,16.0,-999,-99.99,,,-99.99,,2013-05-13 19:44:00,
2013-05-13 15:53:00,69.0,-99.9,30.01,NW,321,9.0,12.0,-999,-99.99,,,-99.99,,2013-05-13 19:53:00,
2013-05-13 16:02:00,70.0,-99.9,30.01,NW,326,10.0,16.0,-999,-99.99,,,-99.99,,2013-05-13 20:02:00,
2013-05-13 16:11:00,68.0,-99.9,30.00,NNW,345,14.0,19.0,-999,-99.99,,,-99.99,,2013-05-13 20:11:00,
2013-05-13 16:23:00,69.0,-99.9,30.00,North,353,10.0,13.0,-999,-99.99,,,-99.99,,2013-05-13 20:23:00,
2013-05-13 16:34:00,69.0,-99.9,29.99,NNW,340,12.0,15.0,-999,-99.99,,,-99.99,,2013-05-13 20:34:00,
2013-05-13 16:44:00,70.0,-99.9,29.99,WNW,298,7.0,12.0,-999,-99.99,,,-99.99,,2013-05-13 20:44:00,
2013-05-13 16:53:00,70.0,-99.9,29.99,WNW,303,8.0,12.0,-999,-99.99,,,-99.99,,2013-05-13 20:53:00,
2013-05-13 17:03:00,70.0,-99.9,29.99,NW,312,9.0,13.0,-999,-99.99,,,-99.99,,2013-05-13 21:03:00,
2013-05-13 17:14:00,70.0,-99.9,29.99,NW,309,10.0,13.0,-999,-99.99,,,-99.99,,2013-05-13 21:14:00,
2013-05-13 17:23:00,70.0,-99.9,29.99,NNW,331,13.0,17.0,-999,-99.99,,,-99.99,,2013-05-13 21:23:00,
2013-05-13 17:34:00,70.0,-99.9,29.99,NW,315,9.0,13.0,-999,-99.99,,,-99.99,,2013-05-13 21:34:00,
2013-05-13 17:44:00,70.0,-99.9,29.99,NW,304,10.0,20.0,-999,-99.99,,,-99.99,,2013-05-13 21:44:00,
2013-05-13 17:53:00,70.0,-99.9,29.99,NNW,330,14.0,18.0,-999,-99.99,,,-99.99,,2013-05-13 21:53:00,
2013-05-13 18:03:00,70.0,-99.9,29.99,WNW,289,14.0,20.0,-999,-99.99,,,-99.99,,2013-05-13 22:03:00,
2013-05-13 18:12:00,70.0,-99.9,29.99,WNW,297,12.0,19.0,-999,-99.99,,,-99.99,,2013-05-13 22:12:00,
2013-05-13 18:23:00,70.0,-99.9,29.98,NW,315,13.0,18.0,-999,-99.99,,,-99.99,,2013-05-13 22:23:00,
2013-05-13 18:32:00,70.0,-99.9,29.99,WNW,301,9.0,13.0,-999,-99.99,,,-99.99,,2013-05-13 22:32:00,
2013-05-13 18:43:00,69.0,-99.9,29.98,NW,317,10.0,16.0,-999,-99.99,,,-99.99,,2013-05-13 22:43:00,
2013-05-13 18:52:00,70.0,-99.9,29.99,WNW,301,12.0,18.0,-999,-99.99,,,-99.99,,2013-05-13 22:52:00,
2013-05-13 19:02:00,69.0,-99.9,29.99,WNW,296,11.0,16.0,-999,-99.99,,,-99.99,,2013-05-13 23:02:00,
2013-05-13 19:13:00,69.0,-99.9,29.99,WNW,294,10.0,16.0,-999,-99.99,,,-99.99,,2013-05-13 23:13:00,
2013-05-13 19:23:00,69.0,-99.9,29.99,NW,314,9.0,13.0,-999,-99.99,,,-99.99,,2013-05-13 23:23:00,
2013-05-13 19:34:00,69.0,-99.9,30.00,NNW,331,10.0,14.0,-999,-99.99,,,-99.99,,2013-05-13 23:34:00,
2013-05-13 19:42:00,69.0,-99.9,30.00,NNW,330,11.0,14.0,-999,-99.99,,,-99.99,,2013-05-13 23:42:00,
2013-05-13 19:54:00,68.0,-99.9,30.01,NNW,338,11.0,13.0,-999,-99.99,,,-99.99,,2013-05-13 23:54:00,
2013-05-13 20:03:00,68.0,-99.9,30.01,NNW,340,10.0,13.0,-999,-99.99,,,-99.99,,2013-05-14 00:03:00,
2013-05-13 20:13:00,67.0,-99.9,30.02,NNW,342,8.0,12.0,-999,-99.99,,,-99.99,,2013-05-14 00:13:00,
2013-05-13 20:22:00,67.0,-99.9,30.02,NNW,330,7.0,11.0,-999,-99.99,,,-99.99,,2013-05-14 00:22:00,
2013-05-13 20:32:00,66.0,-99.9,30.03,NNW,337,8.0,10.0,-999,-99.99,,,-99.99,,2013-05-14 00:32:00,
2013-05-13 20:42:00,65.0,-99.9,30.04,NNW,344,7.0,9.0,-999,-99.99,,,-99.99,,2013-05-14 00:42:00,
2013-05-13 20:52:00,65.0,-99.9,30.04,NNW,339,8.0,10.0,-999,-99.99,,,-99.99,,2013-05-14 00:52:00,
2013-05-13 21:02:00,65.0,-99.9,30.05,NNW,343,7.0,10.0,-999,-99.99,,,-99.99,,2013-05-14 01:02:00,
2013-05-13 21:11:00,64.0,-99.9,30.05,NNW,343,6.0,8.0,-999,-99.99,,,-99.99,,2013-05-14 01:11:00,
2013-05-13 21:21:00,64.0,-99.9,30.06,NNW,345,7.0,9.0,-999,-99.99,,,-99.99,,2013-05-14 01:21:00,
2013-05-13 21:32:00,63.0,-99.9,30.07,NNW,343,6.0,8.0,-999,-99.99,,,-99.99,,2013-05-14 01:32:00,
2013-05-13 21:43:00,63.0,-99.9,30.07,NNW,343,6.0,8.0,-999,-99.99,,,-99.99,,2013-05-14 01:43:00,
2013-05-13 21:53:00,63.0,-99.9,30.07,NNW,343,6.0,8.0,-999,-99.99,,,-99.99,,2013-05-14 01:53:00,
2013-05-13 22:03:00,63.0,-99.9,30.07,NNW,343,6.0,8.0,-999,-99.99,,,-99.99,,2013-05-14 02:03:00,
2013-05-13 22:42:00,66.0,-99.9,30.10,NNW,339,5.0,6.0,-999,-99.99,,,-99.99,,2013-05-14 02:42:00,
2013-05-13 22:52:00,59.0,-99.9,30.10,NNW,341,4.0,5.0,-999,-99.99,,,-99.99,,2013-05-14 02:52:00,
2013-05-13 23:01:00,59.0,-99.9,30.10,NNW,341,4.0,5.0,-999,-99.99,,,-99.99,,2013-05-14 03:01:00,
2013-05-13 23:11:00,59.0,-99.9,30.10,NNW,341,4.0,5.0,-999,-99.99,,,-99.99,,2013-05-14 03:11:00,
2013-05-13 23:22:00,59.0,-99.9,30.10,NNW,341,4.0,5.0,-999,-99.99,,,-99.99,,2013-05-14 03:22:00,
2013-05-13 23:33:00,61.0,-99.9,30.11,North,357,2.0,3.0,-999,-99.99,,,-99.99,,2013-05-14 03:33:00,
2013-05-13 23:43:00,66.0,-99.9,30.11,North,6,2.0,3.0,-999,-99.99,,,-99.99,,2013-05-14 03:43:00,
2013-05-13 23:53:00,61.0,-99.9,30.11,North,4,2.0,4.0,-999,-99.99,,,-99.99,,2013-05-14 03:53:00,